User: anonymous
Location: Unspecified
(0.0000°N, 0.0000°E)
Time: 00:26:24
(UTC+00:00)
Language:

NOAA 17 - Orbit

View from above orbital plane
View from above orbital plane
View from above satellite
View from above satellite

Ground track
Ground track

The orbit data is extracted from the following two-line orbital elements,

1 27453U 02032A   14266.08999313  .00000129  00000-0  73059-4 0  7447
2 27453 098.3204 260.6754 0010741 243.1179 116.8904 14.24778952636620
Epoch (UTC): 23 September 2014 02:09:35
Eccentricity: 0.0010741
inclination: 98.3204°
perigee height: 801 km
apogee height: 817 km
right ascension of ascending node: 260.6754°
argument of perigee: 243.1179°
revolutions per day: 14.24778952
mean anomaly at epoch: 116.8904°
orbit number at epoch: 63662

The dashed part of the orbit path shows where the satellite is in the earth's shadow,  

DLR